K0QJ Weather Reports


time (UTC)temp
C
wind
direction
speed
KPH
gust
KPH
rain 1hr
cm
rain 24hr
cm
rain mn
cm
humidity
%
barometer
mb
20260906175144 36 338 1.6 1.6 0.00 0.00 0.00 48 1013.9
20260906174643 36 343 1.6 1.6 0.00 0.00 0.00 50 1013.7
20260906174137 36 283 3.2 4.8 0.00 0.00 0.00 49 1013.9
20260906173633 36 200 1.6 1.6 0.00 0.00 0.00 49 1014.2
20260906173128 35 338 1.6 1.6 0.00 0.00 0.00 52 1014.3
20260906172627 35 1 3.2 3.2 0.00 0.00 0.00 54 1014.1
20260906172123 35 13 1.6 1.6 0.00 0.00 0.00 54 1014.1
20260906171622 35 222 1.6 1.6 0.00 0.00 0.00 52 1014.3
20260906171119 35 323 0.0 1.6 0.00 0.00 0.00 52 1014.4
20260906170615 35 267 3.2 3.2 0.00 0.00 0.00 53 1014.3
20260906170114 35 23 0.0 1.6 0.00 0.00 0.00 56 1014.5
20260906165610 35 270 3.2 3.2 0.00 0.00 0.00 55 1014.5
20260906165106 35 26 4.8 8.0 0.00 0.00 0.00 54 1014.6
20260906164604 35 198 1.6 3.2 0.00 0.00 0.00 56 1014.7
20260906164100 35 0 0.0 0.0 0.00 0.00 0.00 57 1014.6
20260906163555 35 342 0.0 1.6 0.00 0.00 0.00 56 1014.6
20260906163051 35 217 0.0 3.2 0.00 0.00 0.00 56 1014.5
20260906162548 35 20 4.8 4.8 0.00 0.00 0.00 56 1014.8
20260906162043 35 348 1.6 1.6 0.00 0.00 0.00 57 1014.8
20260906161538 33 322 1.6 1.6 0.00 0.00 0.00 57 1014.5
20260906161037 33 18 1.6 3.2 0.00 0.00 0.00 57 1014.7
20260906160536 33 358 1.6 1.6 0.00 0.00 0.00 58 1014.6
20260906160035 33 356 0.0 1.6 0.00 0.00 0.00 60 1014.7
20260906155532 33 353 0.0 1.6 0.00 0.00 0.00 61 1014.8
20260906155029 33 352 1.6 1.6 0.00 0.00 0.00 62 1014.3
20260906154523 32 357 1.6 1.6 0.00 0.00 0.00 62 1014.7
20260906154022 32 217 3.2 3.2 0.00 0.00 0.00 62 1014.6
20260906153521 32 149 4.8 4.8 0.00 0.00 0.00 62 1014.7
20260906153017 32 110 1.6 1.6 0.00 0.00 0.00 63 1014.4
20260906152510 31 6 1.6 1.6 0.00 0.00 0.00 65 1014.4
20260906152005 31 16 3.2 4.8 0.00 0.00 0.00 65 1014.5
20260906151500 30 279 1.6 1.6 0.00 0.00 0.00 67 1014.6
20260906150956 30 306 0.0 1.6 0.00 0.00 0.00 68 1014.5
20260906150451 30 349 1.6 1.6 0.00 0.00 0.00 68 1014.5
20260906145950 30 355 0.0 0.0 0.00 0.00 0.00 69 1014.5
20260906145450 30 346 0.0 1.6 0.00 0.00 0.00 70 1014.5
20260906144944 29 348 1.6 1.6 0.00 0.00 0.00 70 1014.7
20260906144439 29 351 1.6 1.6 0.00 0.00 0.00 70 1014.7
20260906143935 29 345 1.6 1.6 0.00 0.00 0.00 70 1014.9
20260906143430 29 343 0.0 1.6 0.00 0.00 0.00 71 1014.8
20260906142926 29 345 0.0 0.0 0.00 0.00 0.00 71 1014.4
20260906142425 28 343 0.0 0.0 0.00 0.00 0.00 71 1014.6
20260906141920 28 25 0.0 1.6 0.00 0.00 0.00 72 1014.4
20260906141419 28 285 1.6 1.6 0.00 0.00 0.00 72 1014.4
20260906140914 28 14 1.6 1.6 0.00 0.00 0.00 73 1014.4
20260906140408 28 183 3.2 8.0 0.00 0.00 0.00 72 1014.4
20260906135907 28 338 0.0 0.0 0.00 0.00 0.00 73 1014.5
20260906135401 27 347 0.0 0.0 0.00 0.00 0.00 74 1014.4
20260906134856 27 9 0.0 1.6 0.00 0.00 0.00 74 1014.7
20260906134351 27 345 0.0 1.6 0.00 0.00 0.00 74 1014.2
20260906133846 27 353 1.6 1.6 0.00 0.00 0.00 74 1014.5
20260906133342 27 352 0.0 1.6 0.00 0.00 0.00 75 1014.5
20260906132837 27 357 0.0 1.6 0.00 0.00 0.00 75 1014.4
20260906132332 27 344 0.0 1.6 0.00 0.00 0.00 75 1014.2
20260906131828 26 1 0.0 1.6 0.00 0.00 0.00 75 1014.1
20260906131323 26 354 1.6 1.6 0.00 0.00 0.00 75 1014.1
20260906130819 26 358 0.0 0.0 0.00 0.00 0.00 76 1014.0
20260906130313 26 334 0.0 0.0 0.00 0.00 0.00 76 1014.1
20260906125812 26 348 0.0 0.0 0.00 0.00 0.00 76 1014.0
20260906125309 26 19 1.6 3.2 0.00 0.00 0.00 77 1014.0
20260906124804 26 352 0.0 0.0 0.00 0.00 0.00 77 1014.0
20260906124301 26 356 0.0 0.0 0.00 0.00 0.00 77 1013.7
20260906123759 26 350 0.0 0.0 0.00 0.00 0.00 77 1013.5
20260906123254 25 350 0.0 0.0 0.00 0.00 0.00 77 1013.4
20260906122753 25 352 0.0 0.0 0.00 0.00 0.00 78 1013.6
20260906122249 25 339 0.0 1.6 0.00 0.00 0.00 78 1013.3
20260906121745 25 347 0.0 0.0 0.00 0.00 0.00 78 1013.4
20260906121241 25 343 0.0 0.0 0.00 0.00 0.00 78 1013.5
20260906120737 25 326 0.0 1.6 0.00 0.00 0.00 78 1013.5
20260906120234 25 339 0.0 0.0 0.00 0.00 0.00 78 1013.3
20260906115729 25 349 0.0 0.0 0.00 0.00 0.00 77 1013.2
20260906115224 25 347 0.0 0.0 0.00 0.00 0.00 77 1013.4
20260906114723 26 21 1.6 1.6 0.00 0.00 0.00 77 1013.4
20260906114218 26 23 1.6 1.6 0.00 0.00 0.00 76 1013.5
20260906113713 26 350 0.0 0.0 0.00 0.00 0.00 76 1013.4
20260906113212 26 346 0.0 0.0 0.00 0.00 0.00 76 1013.5
20260906112707 26 348 0.0 0.0 0.00 0.00 0.00 75 1013.4
20260906112204 26 352 0.0 0.0 0.00 0.00 0.00 75 1013.1
20260906111703 26 331 0.0 0.0 0.00 0.00 0.00 74 1013.1
20260906111158 26 344 1.6 1.6 0.00 0.00 0.00 74 1013.3
20260906110653 26 1 0.0 0.0 0.00 0.00 0.00 74 1013.1
20260906110148 26 328 0.0 1.6 0.00 0.00 0.00 74 1013.3
20260906105642 26 353 0.0 0.0 0.00 0.00 0.00 73 1013.1
20260906105139 26 339 0.0 0.0 0.00 0.00 0.00 74 1013.2
20260906104638 26 350 0.0 0.0 0.00 0.00 0.00 73 1013.0
20260906104137 26 347 0.0 0.0 0.00 0.00 0.00 73 1013.2
20260906103636 26 347 0.0 0.0 0.00 0.00 0.00 73 1013.0
20260906103130 26 352 0.0 0.0 0.00 0.00 0.00 73 1013.1
20260906102625 26 355 0.0 0.0 0.00 0.00 0.00 73 1013.2
20260906102114 26 353 0.0 0.0 0.00 0.00 0.00 73 1013.0
20260906101608 26 353 0.0 0.0 0.00 0.00 0.00 73 1013.1
20260906101103 26 349 0.0 0.0 0.00 0.00 0.00 73 1013.3
20260906100558 26 351 0.0 0.0 0.00 0.00 0.00 73 1013.0
20260906100053 26 350 0.0 0.0 0.00 0.00 0.00 73 1013.2
20260906095553 26 353 0.0 0.0 0.00 0.00 0.00 73 1013.0
20260906095049 26 333 0.0 0.0 0.00 0.00 0.00 73 1012.9
20260906094547 26 350 0.0 0.0 0.00 0.00 0.00 73 1012.9
20260906094044 26 19 0.0 0.0 0.00 0.00 0.00 73 1013.1
20260906093539 26 335 0.0 0.0 0.00 0.00 0.00 73 1012.5
20260906093034 26 341 0.0 0.0 0.00 0.00 0.00 73 1012.7
20260906092529 26 349 0.0 0.0 0.00 0.00 0.00 73 1012.7
20260906092024 26 335 0.0 0.0 0.00 0.00 0.00 72 1012.8
20260906091520 26 359 0.0 1.6 0.00 0.00 0.00 72 1013.0
20260906091016 26 326 0.0 0.0 0.00 0.00 0.00 72 1012.7
20260906090516 27 352 0.0 0.0 0.00 0.00 0.00 72 1012.7
20260906090011 27 348 0.0 0.0 0.00 0.00 0.00 72 1012.7
20260906085509 27 347 0.0 0.0 0.00 0.00 0.00 72 1012.4
20260906085004 27 343 0.0 0.0 0.00 0.00 0.00 72 1012.9
20260906084459 27 337 0.0 0.0 0.00 0.00 0.00 72 1012.4
20260906083957 27 349 0.0 0.0 0.00 0.00 0.00 71 1012.4
20260906083454 27 348 0.0 0.0 0.00 0.00 0.00 71 1012.5
20260906082952 27 349 0.0 0.0 0.00 0.00 0.00 71 1012.5
20260906082448 27 336 0.0 0.0 0.00 0.00 0.00 72 1012.3
20260906081943 27 347 0.0 0.0 0.00 0.00 0.00 71 1012.5
20260906081438 27 346 0.0 0.0 0.00 0.00 0.00 71 1012.3
20260906080934 27 336 0.0 0.0 0.00 0.00 0.00 71 1012.8
20260906080431 27 343 0.0 0.0 0.00 0.00 0.00 71 1012.4
20260906075931 27 348 0.0 0.0 0.00 0.00 0.00 70 1012.1
20260906075426 27 347 0.0 0.0 0.00 0.00 0.00 71 1012.2
20260906074920 27 352 0.0 0.0 0.00 0.00 0.00 71 1012.5
20260906074415 27 347 0.0 0.0 0.00 0.00 0.00 71 1012.4
20260906073914 27 359 0.0 0.0 0.00 0.00 0.00 70 1012.3
20260906073409 27 344 0.0 0.0 0.00 0.00 0.00 70 1012.4
20260906072905 27 347 0.0 0.0 0.00 0.00 0.00 70 1012.4
20260906072401 27 343 0.0 0.0 0.00 0.00 0.00 70 1012.4
20260906071856 27 348 0.0 0.0 0.00 0.00 0.00 69 1012.1
20260906071351 27 350 0.0 0.0 0.00 0.00 0.00 69 1012.2
20260906070847 27 348 0.0 0.0 0.00 0.00 0.00 69 1012.3
20260906070343 28 351 0.0 0.0 0.00 0.00 0.00 69 1012.4
20260906065838 28 352 0.0 0.0 0.00 0.00 0.00 68 1012.3
20260906065333 28 355 0.0 0.0 0.00 0.00 0.00 68 1012.8
20260906064829 28 347 0.0 0.0 0.00 0.00 0.00 68 1012.4
20260906064324 28 341 0.0 0.0 0.00 0.00 0.00 68 1012.5
20260906063819 28 345 0.0 0.0 0.00 0.00 0.00 69 1012.4
20260906063315 28 350 0.0 0.0 0.00 0.00 0.00 69 1012.7
20260906062810 28 344 0.0 0.0 0.00 0.00 0.00 69 1012.7
20260906062309 28 349 0.0 0.0 0.00 0.00 0.00 69 1012.7
20260906061804 28 345 0.0 0.0 0.00 0.00 0.00 68 1012.8
20260906061301 28 355 0.0 0.0 0.00 0.00 0.00 68 1012.7
20260906060755 28 348 0.0 0.0 0.00 0.00 0.00 68 1012.7
20260906060253 28 350 0.0 0.0 0.00 0.00 0.00 68 1012.5
20260906055749 28 339 0.0 0.0 0.00 0.00 0.00 68 1012.7
20260906055244 28 336 0.0 0.0 0.00 0.00 0.00 68 1012.8
20260906054739 28 331 0.0 0.0 0.00 0.00 0.00 68 1012.8
20260906054234 28 358 0.0 0.0 0.00 0.00 0.00 68 1013.1
20260906053731 28 348 0.0 0.0 0.00 0.00 0.00 67 1013.0
20260906053226 28 346 0.0 0.0 0.00 0.00 0.00 67 1013.0
20260906052721 28 355 0.0 0.0 0.00 0.00 0.00 67 1013.0
20260906052217 28 341 0.0 0.0 0.00 0.00 0.00 68 1012.9
20260906051714 28 343 0.0 0.0 0.00 0.00 0.00 68 1013.1
20260906051213 28 345 0.0 0.0 0.00 0.00 0.00 68 1012.8
20260906050709 28 353 0.0 0.0 0.00 0.00 0.00 68 1013.1
20260906050204 28 351 0.0 0.0 0.00 0.00 0.00 68 1013.1
20260906045702 28 341 0.0 1.6 0.00 0.00 0.00 67 1013.1
20260906045157 29 336 0.0 0.0 0.00 0.00 0.00 67 1012.9
20260906044653 29 0 0.0 0.0 0.00 0.00 0.00 67 1012.9
20260906044148 29 350 0.0 0.0 0.00 0.00 0.00 67 1013.1
20260906043644 29 359 0.0 0.0 0.00 0.00 0.00 67 1013.1
20260906043140 29 4 0.0 0.0 0.00 0.00 0.00 67 1013.0
20260906042639 29 354 0.0 0.0 0.00 0.00 0.00 68 1012.7
20260906042133 29 347 0.0 0.0 0.00 0.00 0.00 68 1012.9
20260906041629 29 342 0.0 0.0 0.00 0.00 0.00 68 1012.7
20260906041124 29 348 0.0 0.0 0.00 0.00 0.00 68 1012.5
20260906040620 29 359 0.0 0.0 0.00 0.00 0.00 68 1012.7
20260906040115 29 341 0.0 0.0 0.00 0.00 0.00 68 1012.9
20260906035610 30 352 0.0 0.0 0.00 0.00 0.00 67 1012.7
20260906035105 30 343 0.0 0.0 0.00 0.00 0.00 67 1012.5
20260906034600 30 342 0.0 0.0 0.00 0.00 0.00 66 1012.3
20260906034055 30 356 0.0 0.0 0.00 0.00 0.00 66 1012.2
20260906033550 30 353 0.0 0.0 0.00 0.00 0.00 66 1012.3
20260906033045 30 359 0.0 0.0 0.00 0.00 0.00 66 1012.4
20260906032542 30 342 0.0 1.6 0.00 0.00 0.00 65 1012.2
20260906032036 30 332 0.0 0.0 0.00 0.00 0.00 66 1012.3
20260906031532 30 345 0.0 0.0 0.00 0.00 0.00 66 1012.2
20260906031022 30 353 0.0 0.0 0.00 0.00 0.00 65 1012.3
20260906030521 30 339 0.0 0.0 0.00 0.00 0.00 65 1012.4
20260906030020 30 351 0.0 0.0 0.00 0.00 0.00 64 1012.3
20260906025520 30 343 0.0 0.0 0.00 0.00 0.00 64 1012.0
20260906025018 30 349 0.0 0.0 0.00 0.00 0.00 65 1011.9
20260906024513 30 352 0.0 0.0 0.00 0.00 0.00 64 1012.0
20260906024008 30 349 0.0 0.0 0.00 0.00 0.00 64 1011.8
20260906023504 30 345 0.0 0.0 0.00 0.00 0.00 64 1011.9
20260906022959 30 351 0.0 0.0 0.00 0.00 0.00 64 1011.6
20260906022454 31 357 0.0 0.0 0.00 0.00 0.00 63 1011.5
20260906021949 31 1 0.0 1.6 0.00 0.00 0.00 63 1011.6
20260906021444 31 2 0.0 0.0 0.00 0.00 0.00 62 1011.4
20260906020939 31 343 0.0 0.0 0.00 0.00 0.00 62 1011.5
20260906020433 31 341 0.0 0.0 0.00 0.00 0.00 61 1011.3
20260906015927 31 337 0.0 0.0 0.00 0.00 0.00 61 1011.3
20260906015427 31 347 0.0 0.0 0.00 0.00 0.00 61 1011.3
20260906014927 31 346 0.0 0.0 0.00 0.00 0.00 61 1011.3
20260906014426 31 347 0.0 0.0 0.00 0.00 0.00 60 1011.0
20260906013923 31 334 0.0 0.0 0.00 0.00 0.00 60 1010.9
20260906013418 32 349 0.0 0.0 0.00 0.00 0.00 60 1011.0
20260906012914 32 356 0.0 0.0 0.00 0.00 0.00 59 1011.0
20260906012414 32 341 0.0 0.0 0.00 0.00 0.00 59 1010.9
20260906011913 32 344 0.0 0.0 0.00 0.00 0.00 59 1010.8
20260906011408 32 347 0.0 0.0 0.00 0.00 0.00 58 1011.1
20260906010858 32 342 0.0 0.0 0.00 0.00 0.00 58 1011.1
20260906010354 32 347 0.0 0.0 0.00 0.00 0.00 58 1010.9
20260906005850 32 1 1.6 3.2 0.00 0.00 0.00 57 1010.9
20260906005349 32 350 0.0 0.0 0.00 0.00 0.00 57 1010.7
20260906004848 32 331 0.0 0.0 0.00 0.00 0.00 57 1010.9
20260906004347 32 358 0.0 0.0 0.00 0.00 0.00 57 1010.9
20260906003843 33 344 0.0 0.0 0.00 0.00 0.00 57 1010.7
20260906003338 33 340 0.0 0.0 0.00 0.00 0.00 56 1010.6
20260906002834 33 352 0.0 0.0 0.00 0.00 0.00 56 1010.6
20260906002333 33 359 0.0 1.6 0.00 0.00 0.00 55 1010.8
20260906001829 33 351 0.0 0.0 0.00 0.00 0.00 55 1010.8
20260906001324 33 339 0.0 0.0 0.00 0.00 0.00 55 1010.8
20260906000819 33 45 1.6 1.6 0.00 0.00 0.00 54 1010.7
20260906000314 33 337 0.0 0.0 0.00 0.00 0.00 54 1010.6
20260905235808 33 14 0.0 0.0 0.00 0.00 0.00 54 1010.5
20260905235306 34 337 0.0 0.0 0.00 0.00 0.00 54 1010.6
20260905234758 34 357 1.6 1.6 0.00 0.00 0.00 52 1010.8
20260905234253 34 352 0.0 0.0 0.00 0.00 0.00 52 1010.7
20260905233748 35 315 0.0 0.0 0.00 0.00 0.00 52 1010.7
20260905233242 35 7 0.0 0.0 0.00 0.00 0.00 51 1010.6
20260905232742 35 214 3.2 3.2 0.00 0.00 0.00 50 1010.7
20260905232238 35 15 0.0 0.0 0.00 0.00 0.00 51 1010.5
20260905231734 35 1 1.6 1.6 0.00 0.00 0.00 50 1010.4
20260905231229 35 336 0.0 1.6 0.00 0.00 0.00 50 1010.7
20260905230725 35 352 0.0 0.0 0.00 0.00 0.00 50 1010.4
20260905230222 35 14 0.0 1.6 0.00 0.00 0.00 49 1010.5
20260905225722 35 353 1.6 1.6 0.00 0.00 0.00 49 1010.6
20260905225218 35 242 3.2 3.2 0.00 0.00 0.00 47 1010.5
20260905224716 36 307 1.6 1.6 0.00 0.00 0.00 45 1010.5
20260905224212 36 355 1.6 1.6 0.00 0.00 0.00 40 1010.5
20260905223708 35 357 0.0 0.0 0.00 0.00 0.00 42 1010.5
20260905223205 35 351 0.0 1.6 0.00 0.00 0.00 42 1010.6
20260905222700 35 352 0.0 0.0 0.00 0.00 0.00 42 1010.7
20260905222200 36 9 0.0 0.0 0.00 0.00 0.00 40 1010.8
20260905221655 36 231 3.2 3.2 0.00 0.00 0.00 39 1010.8
20260905221152 36 165 1.6 3.2 0.00 0.00 0.00 39 1010.7
20260905220647 36 70 1.6 3.2 0.00 0.00 0.00 39 1010.7
20260905220144 37 311 0.0 1.6 0.00 0.00 0.00 39 1010.8
20260905215643 36 346 1.6 1.6 0.00 0.00 0.00 40 1010.9
20260905215139 36 248 1.6 1.6 0.00 0.00 0.00 39 1010.9
20260905214634 37 344 0.0 0.0 0.00 0.00 0.00 40 1010.9
20260905214129 37 245 0.0 1.6 0.00 0.00 0.00 38 1011.0
20260905213625 37 351 0.0 0.0 0.00 0.00 0.00 39 1011.0
20260905213120 37 340 1.6 1.6 0.00 0.00 0.00 39 1011.3
20260905212615 37 219 3.2 3.2 0.00 0.00 0.00 39 1011.1
20260905212114 37 232 1.6 1.6 0.00 0.00 0.00 39 1011.2
20260905211610 37 205 3.2 3.2 0.00 0.00 0.00 38 1011.1
20260905211105 37 6 1.6 1.6 0.00 0.00 0.00 38 1011.1
20260905210601 37 341 0.0 0.0 0.00 0.00 0.00 38 1011.3
20260905210056 37 314 0.0 1.6 0.00 0.00 0.00 35 1011.2
20260905205554 37 325 1.6 1.6 0.00 0.00 0.00 36 1011.5
20260905205049 37 316 3.2 3.2 0.00 0.00 0.00 37 1011.4
20260905204544 37 14 0.0 0.0 0.00 0.00 0.00 37 1011.4
20260905204039 38 245 1.6 1.6 0.00 0.00 0.00 38 1011.6
20260905203538 37 332 0.0 1.6 0.00 0.00 0.00 39 1011.7
20260905203034 37 294 1.6 1.6 0.00 0.00 0.00 40 1011.8
20260905202529 37 201 1.6 3.2 0.00 0.00 0.00 39 1012.0
20260905202025 36 322 1.6 3.2 0.00 0.00 0.00 40 1012.0
20260905201521 38 348 4.8 4.8 0.00 0.00 0.00 37 1012.0
20260905201019 38 287 1.6 1.6 0.00 0.00 0.00 37 1012.2
20260905200515 38 21 1.6 1.6 0.00 0.00 0.00 37 1012.2
20260905200015 38 326 3.2 3.2 0.00 0.00 0.00 37 1012.2
20260905195509 38 12 1.6 1.6 0.00 0.00 0.00 39 1012.2
20260905195004 37 334 1.6 3.2 0.00 0.00 0.00 39 1012.3
20260905194503 37 287 0.0 1.6 0.00 0.00 0.00 42 1012.3
20260905193958 37 236 3.2 3.2 0.00 0.00 0.00 40 1012.4
20260905193453 37 359 1.6 3.2 0.00 0.00 0.00 42 1012.4
20260905192948 37 310 1.6 1.6 0.00 0.00 0.00 41 1012.5
20260905192443 37 275 1.6 3.2 0.00 0.00 0.00 41 1012.4
20260905191938 37 6 1.6 1.6 0.00 0.00 0.00 43 1012.3
20260905191437 37 27 3.2 3.2 0.00 0.00 0.00 43 1012.2
20260905190932 37 1 3.2 3.2 0.00 0.00 0.00 43 1012.5
20260905190429 36 340 1.6 1.6 0.00 0.00 0.00 43 1012.7
20260905185928 36 331 0.0 0.0 0.00 0.00 0.00 43 1012.9
20260905185424 37 327 1.6 3.2 0.00 0.00 0.00 42 1012.9
20260905184922 37 267 3.2 3.2 0.00 0.00 0.00 43 1012.9
20260905184417 36 146 3.2 3.2 0.00 0.00 0.00 44 1013.0
20260905183916 35 340 0.0 0.0 0.00 0.00 0.00 46 1013.0
20260905183411 36 73 3.2 3.2 0.00 0.00 0.00 46 1012.9
20260905182906 36 326 0.0 1.6 0.00 0.00 0.00 45 1013.2
20260905182404 37 247 3.2 3.2 0.00 0.00 0.00 43 1013.1
20260905181900 37 330 0.0 0.0 0.00 0.00 0.00 42 1013.4
20260905181355 37 325 3.2 3.2 0.00 0.00 0.00 42 1013.4
20260905180854 37 236 1.6 1.6 0.00 0.00 0.00 44 1013.5
20260905180349 37 219 3.2 3.2 0.00 0.00 0.00 44 1013.2
20260905175843 37 343 0.0 1.6 0.00 0.00 0.00 45 1013.6
20260905175338 37 290 1.6 1.6 0.00 0.00 0.00 44 1013.6